Port Weller, Ontario

4:53 AM EDT on July 21, 2017 (GMT -0400)
Port Weller

Weather History for CWWZ - December, 2012

Change the Weather History Date:

Monday, December 3, 2012

  Actual Average (CYSN) Record (CYSN)
Temperature  
Mean Temperature 44 °F -  
Max Temperature 46 °F 39 °F 59 °F (1998)
Min Temperature 41 °F 30 °F 10 °F (2002)
Degree Days  
Heating Degree Days 22    
Moisture  
Dew Point 41 °F    
Average Humidity 87    
Maximum Humidity 93    
Minimum Humidity 72    
Precipitation  
Precipitation 0.00 in - - ()
Sea Level Pressure  
Sea Level Pressure 30.15 in    
Wind  
Wind Speed 7 mph ()    
Max Wind Speed 14 mph    
Max Gust Speed -    
Averages and records for this station are not official NWS values.
T = Trace of Precipitation, MM = Missing Value Source: Averaged Metar Reports

Daily Weather History Graph

Daily Weather History Graph

Search for Another Location

Airport or City:

Trip Planner

Search our weather history database for the weather conditions in past years. The results will help you decide how hot, cold, wet, or windy it might be!

Date:

Astronomy

Dec. 03, 2012 Rise Set
Actual Time 7:31 AM EST 4:41 PM EST
Civil Twilight 6:59 AM EST 5:13 PM EST
Nautical Twilight 6:24 AM EST 5:49 PM EST
Astronomical Twilight 5:49 AM EST 6:23 PM EST
Moon 9:31 PM EST (12/3) 10:50 AM EST (12/3)
Length of Visible Light 10h 14m
Length of Day
9h 10m
Waning Gibbous, 78% of the Moon is Illuminated
Dec 3
Waning Gibbous
Dec 6
Last Quarter
Dec 13
New
Dec 20
First Quarter
Dec 28
Full

Hourly Weather History & Observations

Time (EST) Temp. Windchill Dew Point Humidity Pressure Visibility Wind Dir Wind Speed Gust Speed Precip Events Conditions
12:00 AM 44.8 °F 39.4 °F 41.0 °F 87% 30.12 in - West 10.4 mph - N/A   Unknown
1:00 AM 45 °F - 40 °F 78% 30.13 in - West 13.8 mph - -  
1:00 AM 45.1 °F 38.8 °F 40.3 °F 83% 30.13 in - West 13.8 mph - N/A   Unknown
2:00 AM 44.1 °F 38.6 °F 40.3 °F 87% 30.14 in - WNW 10.4 mph - N/A   Unknown
3:00 AM 43.3 °F 39.2 °F 40.8 °F 91% 30.16 in - NW 6.9 mph - N/A   Unknown
4:00 AM 42 °F - 40 °F 88% 30.17 in - NNW 4.6 mph - -  
4:00 AM 41.9 °F 39.0 °F 39.7 °F 92% 30.17 in - NNW 4.6 mph - N/A   Unknown
5:00 AM 42.8 °F - 40.5 °F 91% 30.19 in - WSW 2.3 mph - N/A   Unknown
6:00 AM 42.6 °F - 39.7 °F 90% 30.19 in - SSW 2.3 mph - N/A   Unknown
7:00 AM 42 °F - 40 °F 88% 30.21 in - South 3.5 mph - -  
7:00 AM 42.4 °F 40.7 °F 39.7 °F 90% 30.21 in - South 3.5 mph - N/A   Unknown
8:00 AM 42.8 °F - 39.7 °F 89% 30.22 in - SSW 2.3 mph - N/A   Unknown
9:00 AM 43.7 °F - 39.6 °F 85% 30.22 in - SW 1.2 mph - N/A   Unknown
10:00 AM 45 °F - 39 °F 72% 30.22 in - SE 3.5 mph - -  
10:00 AM 45.1 °F 43.7 °F 38.8 °F 79% 30.22 in - SE 3.5 mph - N/A   Unknown
11:00 AM 46.6 °F - 39.9 °F 78% 30.21 in - East 3.5 mph - N/A   Unknown
12:00 PM 46.2 °F 42.7 °F 40.8 °F 81% 30.18 in - NE 6.9 mph - N/A   Unknown
1:00 PM 45 °F - 41 °F 80% 30.16 in - NE 11.5 mph - -  
1:00 PM 45.1 °F 39.5 °F 40.8 °F 85% 30.16 in - NE 11.5 mph - N/A   Unknown
2:00 PM 44.8 °F 38.7 °F 41.2 °F 87% 30.14 in - ENE 12.7 mph - N/A   Unknown
3:00 PM 44.2 °F 38.0 °F 41.2 °F 89% 30.14 in - ENE 12.7 mph - N/A   Unknown
4:00 PM 44 °F - 42 °F 89% 30.13 in - ENE 11.5 mph - -  
4:00 PM 44.1 °F 38.1 °F 41.7 °F 91% 30.13 in - ENE 11.5 mph - N/A   Unknown
5:00 PM 44.1 °F 39.5 °F 42.3 °F 93% 30.14 in - East 8.1 mph - N/A   Unknown
6:00 PM 44.4 °F 37.9 °F 42.1 °F 91% 30.12 in - East 13.8 mph - N/A   Unknown
7:00 PM 46 °F - 43 °F 84% 30.10 in - East 9.2 mph - -  
7:00 PM 46.0 °F 41.4 °F 42.8 °F 88% 30.10 in - East 9.2 mph - N/A   Unknown
8:00 PM 46.0 °F 44.8 °F 43.5 °F 91% 30.08 in - ESE 3.5 mph - N/A   Unknown
9:00 PM 45.1 °F - 42.6 °F 91% 30.08 in - WSW 2.3 mph - N/A   Unknown
10:00 PM 45 °F - 43 °F 88% 30.05 in - WSW 3.5 mph - -  
10:00 PM 44.8 °F 43.3 °F 42.6 °F 92% 30.05 in - WSW 3.5 mph - N/A   Unknown
11:00 PM 44.6 °F - 42.8 °F 93% 30.02 in - South 2.3 mph - N/A   Unknown